Elefsis, Greece

5:26 PM EEST on June 27, 2017 (GMT +0300)
Elefsis Air Base

Weather History for LGEL - March, 2014

Change the Weather History Date:

Sunday, March 2, 2014

  Actual Average Record
Temperature  
Mean Temperature 55 °F -  
Max Temperature 62 °F 59 °F 71 °F (2002)
Min Temperature 48 °F 43 °F 32 °F (2012)
Degree Days  
Heating Degree Days 10    
Growing Degree Days 5 (Base 50)    
Moisture  
Dew Point 44 °F    
Average Humidity 70    
Maximum Humidity 100    
Minimum Humidity 45    
Precipitation  
Precipitation 0.00 in - - ()
Sea Level Pressure  
Sea Level Pressure 29.52 in    
Wind  
Wind Speed 3 mph ()    
Max Wind Speed 12 mph    
Max Gust Speed -    
Visibility 6.1 miles    
Events Rain , Thunderstorm    
Averages and records for this station are not official NWS values.
T = Trace of Precipitation, MM = Missing Value Source: Averaged Metar Reports

Daily Weather History Graph

Daily Weather History Graph

Search for Another Location

Airport or City:

Trip Planner

Search our weather history database for the weather conditions in past years. The results will help you decide how hot, cold, wet, or windy it might be!

Date:

Astronomy

Mar. 02, 2014 Rise Set
Actual Time 6:56 AM EET 6:19 PM EET
Civil Twilight 6:30 AM EET 6:46 PM EET
Nautical Twilight 5:59 AM EET 7:16 PM EET
Astronomical Twilight 5:29 AM EET 7:47 PM EET
Moon 7:17 AM EET (3/2) 7:52 PM EET (3/2)
Length of Visible Light 12h 16m
Length of Day
11h 23m
New Moon, 2% of the Moon is Illuminated
Mar 2
New Moon
Mar 8
First Quarter
Mar 16
Full
Mar 24
Last Quarter
Mar 30
New

Hourly Weather History & Observations

Time (EET) Temp. Dew Point Humidity Pressure Visibility Wind Dir Wind Speed Gust Speed Precip Events Conditions
12:50 AM 53.6 °F 50.0 °F 88% 29.59 in 6.2 mi Calm Calm - N/A   Overcast
1:50 AM 53.6 °F 51.8 °F 94% 29.56 in 6.2 mi Calm Calm - N/A   Light Drizzle
2:50 AM 53.6 °F 51.8 °F 94% 29.53 in 6.2 mi East 3.5 mph - N/A   Overcast
4:50 AM 53.6 °F 50.0 °F 88% 29.50 in 3.1 mi NW 4.6 mph - N/A Rain , Thunderstorm Light Thunderstorms and Rain
5:20 AM 50.0 °F 50.0 °F 100% 29.47 in 6.2 mi NNE 4.6 mph - N/A   Overcast
5:50 AM 50.0 °F 50.0 °F 100% 29.47 in 6.2 mi Calm Calm - N/A   Overcast
6:20 AM 50.0 °F 50.0 °F 100% 29.47 in 6.2 mi Calm Calm - N/A   Overcast
6:50 AM 50.0 °F 50.0 °F 100% 29.47 in 6.2 mi Calm Calm - N/A   Overcast
7:20 AM 50.0 °F 50.0 °F 100% 29.47 in 6.2 mi Calm Calm - N/A   Overcast
7:50 AM 50.0 °F 50.0 °F 100% 29.47 in 6.2 mi Calm Calm - N/A   Mostly Cloudy
8:20 AM 50.0 °F 50.0 °F 100% 29.47 in 6.2 mi Calm Calm - N/A   Partly Cloudy
8:50 AM 53.6 °F 53.6 °F 100% 29.47 in 6.2 mi Calm Calm - N/A   Partly Cloudy
9:20 AM 55.4 °F 51.8 °F 88% 29.47 in 6.2 mi Calm Calm - N/A   Partly Cloudy
9:50 AM 57.2 °F 50.0 °F 77% 29.47 in 6.2 mi Calm Calm - N/A   Partly Cloudy
10:20 AM 57.2 °F 42.8 °F 59% 29.47 in 6.2 mi Calm Calm - N/A   Scattered Clouds
10:50 AM 59.0 °F 42.8 °F 55% 29.50 in 6.2 mi West 11.5 mph - N/A   Partly Cloudy
11:20 AM 57.2 °F 41.0 °F 55% 29.50 in 6.2 mi West 11.5 mph - N/A   Mostly Cloudy
11:50 AM 59.0 °F 41.0 °F 51% 29.53 in 6.2 mi West 9.2 mph - N/A   Scattered Clouds
12:20 PM 59.0 °F 41.0 °F 51% 29.53 in 6.2 mi West 6.9 mph - N/A   Scattered Clouds
12:50 PM 59.0 °F 41.0 °F 51% 29.50 in 6.2 mi WNW 6.9 mph - N/A   Partly Cloudy
1:20 PM 62.6 °F 41.0 °F 45% 29.50 in 6.2 mi West 9.2 mph - N/A   Partly Cloudy
1:50 PM 60.8 °F 39.2 °F 45% 29.50 in 6.2 mi West 6.9 mph - N/A   Partly Cloudy
2:20 PM 60.8 °F 39.2 °F 45% 29.50 in 6.2 mi West 6.9 mph - N/A   Partly Cloudy
2:50 PM 62.6 °F 41.0 °F 45% 29.50 in 6.2 mi SSW 6.9 mph - N/A   Partly Cloudy
3:20 PM 62.6 °F 41.0 °F 45% 29.50 in 6.2 mi SSW 6.9 mph - N/A   Partly Cloudy
3:50 PM 62.6 °F 41.0 °F 45% 29.50 in 6.2 mi South 9.2 mph - N/A   Partly Cloudy
4:20 PM 62.6 °F 41.0 °F 45% 29.50 in 6.2 mi SSW 9.2 mph - N/A   Partly Cloudy
4:50 PM 60.8 °F 39.2 °F 45% 29.53 in 6.2 mi SSW 6.9 mph - N/A   Partly Cloudy
5:20 PM 60.8 °F 39.2 °F 45% 29.53 in 6.2 mi SSW 6.9 mph - N/A   Partly Cloudy
5:50 PM 59.0 °F 41.0 °F 51% 29.53 in 6.2 mi SSW 4.6 mph - N/A   Partly Cloudy
6:20 PM 57.2 °F 39.2 °F 51% 29.53 in 6.2 mi Calm Calm - N/A   Partly Cloudy
6:50 PM 55.4 °F 39.2 °F 54% 29.59 in 6.2 mi Calm Calm - N/A   Partly Cloudy
7:20 PM 53.6 °F 41.0 °F 62% 29.59 in 6.2 mi Calm Calm - N/A   Partly Cloudy
7:50 PM 51.8 °F 41.0 °F 67% 29.59 in 6.2 mi Calm Calm - N/A   Partly Cloudy
8:20 PM 51.8 °F 41.0 °F 67% 29.59 in 6.2 mi Calm Calm - N/A   Partly Cloudy
8:50 PM 50.0 °F 41.0 °F 71% 29.59 in 6.2 mi Calm Calm - N/A   Partly Cloudy
9:20 PM 48.2 °F 41.0 °F 76% 29.59 in 6.2 mi Calm Calm - N/A   Partly Cloudy
9:50 PM 48.2 °F 41.0 °F 76% 29.59 in 6.2 mi Calm Calm - N/A   Partly Cloudy
10:20 PM 48.2 °F 41.0 °F 76% 29.59 in 6.2 mi Calm Calm - N/A   Partly Cloudy
10:50 PM 48.2 °F 41.0 °F 76% 29.59 in 6.2 mi Calm Calm - N/A   Partly Cloudy
11:50 PM 48.2 °F 42.8 °F 82% 29.59 in 6.2 mi Calm Calm - N/A   Scattered Clouds